Weather History for Hebbronville, TX

Change the Weather History Date:

Thursday, April 25, 2013

  Actual Average (KLRD) Record (KLRD)
Temperature  
Mean Temperature 60 °F 78 °F  
Max Temperature 62 °F 90 °F 107 °F (2011)
Min Temperature 58 °F 67 °F 42 °F (1913)
Degree Days  
Heating Degree Days 5 0  
Month to date heating degree days 12  
Since 1 July heating degree days 925  
Cooling Degree Days 0 13  
Month to date cooling degree days 273  
Year to date cooling degree days 531  
Growing Degree Days 10 (Base 50)    
Moisture  
Dew Point 45 °F    
Average Humidity 59    
Maximum Humidity 89    
Minimum Humidity 43    
Precipitation  
Precipitation 0.00 in 0.06 in 2.65 in (1949)
Month to date precipitation 1.11  
Year to date precipitation 4.07  
Sea Level Pressure  
Sea Level Pressure 30.22 in    
Wind  
Wind Speed 6 mph (NNE)    
Max Wind Speed 12 mph    
Max Gust Speed -    
Visibility 9 miles    
Events Rain    
T = Trace of Precipitation, MM = Missing Value Source: NWS Daily Summary

Daily Weather History Graph

Daily Weather History Graph

Search for Another Location

Airport:

Trip Planner

Search our weather history database for the weather conditions in past years. The results will help you decide how hot, cold, wet, or windy it might be!

Date:

Astronomy

Apr. 25, 2013 Rise Set
Actual Time 7:00 AM CDT 8:05 PM CDT
Civil Twilight 6:36 AM CDT 8:29 PM CDT
Nautical Twilight 6:07 AM CDT 8:58 PM CDT
Astronomical Twilight 5:38 AM CDT 9:28 PM CDT
Moon 8:17 PM CDT (4/25) 6:44 AM CDT (4/25)
Length of Visible Light 13h 53m
Length of Day
13h 04m
Full, 100% of the Moon is Illuminated
Apr 25
Full
Apr 25
Full
May 2
Last Quarter
May 9
New
May 17
First Quarter

Hourly Weather History & Observations

Time (CDT) Temp. Dew Point Humidity Pressure Visibility Wind Dir Wind Speed Gust Speed Precip Events Conditions
12:15 AM 58.1 °F 38.1 °F 47% 30.24 in 10.0 mi WNW 4.6 mph - N/A   Overcast
12:35 AM 58.3 °F 38.3 °F 47% 30.23 in 10.0 mi WNW 4.6 mph - N/A   Overcast
12:55 AM 58.3 °F 38.8 °F 48% 30.24 in 10.0 mi West 5.8 mph - N/A   Overcast
1:15 AM 58.3 °F 38.5 °F 48% 30.23 in 10.0 mi West 4.6 mph - N/A   Overcast
1:35 AM 58.3 °F 38.1 °F 47% 30.23 in 10.0 mi Calm Calm - N/A   Overcast
1:55 AM 58.5 °F 38.3 °F 47% 30.22 in 10.0 mi Calm Calm - N/A   Overcast
2:15 AM 58.6 °F 38.8 °F 48% 30.21 in 10.0 mi NNW 3.5 mph - N/A   Overcast
2:35 AM 58.8 °F 39.4 °F 49% 30.21 in 10.0 mi WNW 3.5 mph - N/A   Overcast
2:55 AM 58.6 °F 39.6 °F 49% 30.21 in 10.0 mi Calm Calm - N/A   Overcast
3:15 AM 58.6 °F 39.6 °F 49% 30.20 in 10.0 mi NW 4.6 mph - N/A   Overcast
3:35 AM 58.6 °F 39.6 °F 49% 30.19 in 10.0 mi NNW 6.9 mph - N/A   Overcast
3:55 AM 58.5 °F 39.9 °F 50% 30.20 in 10.0 mi NW 6.9 mph - N/A   Overcast
4:15 AM 58.5 °F 40.1 °F 51% 30.19 in 10.0 mi NW 4.6 mph - N/A   Overcast
4:35 AM 58.5 °F 40.1 °F 51% 30.20 in 10.0 mi West 5.8 mph - N/A   Overcast
4:55 AM 58.5 °F 39.9 °F 50% 30.20 in 10.0 mi WNW 8.1 mph - N/A   Overcast
5:15 AM 58.3 °F 39.6 °F 50% 30.21 in 10.0 mi WNW 6.9 mph - N/A   Overcast
5:35 AM 58.5 °F 38.8 °F 48% 30.20 in 10.0 mi WNW 8.1 mph - N/A   Overcast
5:55 AM 58.3 °F 38.8 °F 48% 30.20 in 10.0 mi NW 9.2 mph - N/A   Overcast
6:15 AM 58.3 °F 39.2 °F 49% 30.21 in 10.0 mi WNW 8.1 mph - N/A   Overcast
6:35 AM 58.5 °F 39.4 °F 49% 30.21 in 10.0 mi NW 8.1 mph - N/A   Overcast
6:55 AM 58.6 °F 39.4 °F 49% 30.21 in 10.0 mi NNW 8.1 mph - N/A   Overcast
7:15 AM 59.0 °F 39.6 °F 49% 30.22 in 10.0 mi NW 5.8 mph - N/A   Overcast
7:35 AM 59.2 °F 39.6 °F 48% 30.23 in 10.0 mi NW 4.6 mph - N/A   Overcast
7:55 AM 59.5 °F 39.0 °F 47% 30.23 in 10.0 mi NNW 8.1 mph - N/A   Overcast
8:15 AM 60.1 °F 38.5 °F 45% 30.25 in 10.0 mi NNW 5.8 mph - N/A   Overcast
8:35 AM 60.4 °F 38.5 °F 44% 30.25 in 7.0 mi NNW 6.9 mph - N/A   Overcast
8:55 AM 60.6 °F 38.3 °F 44% 30.25 in 10.0 mi North 6.9 mph - N/A   Overcast
9:15 AM 61.0 °F 38.3 °F 43% 30.26 in 10.0 mi North 8.1 mph - N/A   Overcast
9:35 AM 60.8 °F 39.4 °F 45% 30.26 in 10.0 mi North 11.5 mph - N/A Rain Light Rain
9:55 AM 60.8 °F 38.8 °F 44% 30.27 in 10.0 mi North 9.2 mph - N/A   Overcast
10:15 AM 61.2 °F 38.5 °F 43% 30.28 in 10.0 mi North 8.1 mph - N/A   Overcast
10:35 AM 61.2 °F 38.5 °F 43% 30.29 in 10.0 mi North 9.2 mph - N/A   Overcast
10:55 AM 61.2 °F 39.4 °F 45% 30.29 in 10.0 mi North 9.2 mph - N/A   Overcast
11:15 AM 60.4 °F 43.2 °F 53% 30.29 in 10.0 mi North 4.6 mph - N/A   Overcast
11:35 AM 61.3 °F 43.7 °F 52% 30.30 in 10.0 mi NNE 6.9 mph - N/A   Overcast
11:55 AM 61.0 °F 45.3 °F 56% 30.30 in 10.0 mi NE 10.4 mph - N/A   Overcast
12:15 PM 60.8 °F 45.5 °F 57% 30.29 in 10.0 mi NE 8.1 mph - N/A   Overcast
12:35 PM 61.2 °F 45.5 °F 56% 30.28 in 10.0 mi ENE 9.2 mph - N/A   Overcast
12:55 PM 61.7 °F 45.1 °F 55% 30.27 in 10.0 mi NE 9.2 mph - N/A   Overcast
1:15 PM 62.1 °F 44.6 °F 53% 30.27 in 10.0 mi NE 9.2 mph - N/A   Overcast
1:35 PM 61.5 °F 45.1 °F 55% 30.26 in 10.0 mi NNE 6.9 mph - N/A   Overcast
1:55 PM 61.0 °F 46.0 °F 58% 30.26 in 10.0 mi NNE 8.1 mph - N/A   Overcast
2:15 PM 61.0 °F 47.3 °F 61% 30.25 in 7.0 mi NE 6.9 mph - N/A   Overcast
2:35 PM 59.7 °F 49.3 °F 68% 30.24 in 5.0 mi NE 9.2 mph - N/A   Haze
2:55 PM 59.4 °F 49.5 °F 70% 30.24 in 10.0 mi NE 8.1 mph - N/A   Overcast
3:15 PM 59.5 °F 49.3 °F 69% 30.22 in 10.0 mi NNE 6.9 mph - N/A   Overcast
3:35 PM 60.1 °F 49.3 °F 67% 30.22 in 10.0 mi ENE 5.8 mph - N/A   Overcast
3:55 PM 60.6 °F 49.1 °F 66% 30.21 in 10.0 mi NE 5.8 mph - N/A   Overcast
4:15 PM 61.2 °F 48.7 °F 64% 30.21 in 10.0 mi ENE 8.1 mph - N/A   Overcast
4:35 PM 61.2 °F 48.4 °F 63% 30.20 in 10.0 mi NE 10.4 mph - N/A   Overcast
4:55 PM 61.0 °F 48.6 °F 64% 30.19 in 10.0 mi NE 8.1 mph - N/A   Overcast
5:15 PM 60.8 °F 48.7 °F 64% 30.18 in 10.0 mi NE 9.2 mph - N/A   Overcast
5:35 PM 61.0 °F 48.9 °F 64% 30.18 in 10.0 mi NE 8.1 mph - N/A   Overcast
5:55 PM 61.2 °F 49.3 °F 65% 30.18 in 10.0 mi NE 9.2 mph - N/A   Overcast
6:15 PM 61.3 °F 49.5 °F 65% 30.18 in 10.0 mi NE 6.9 mph - N/A   Overcast
6:35 PM 61.2 °F 50.0 °F 67% 30.18 in 10.0 mi NE 6.9 mph - N/A   Overcast
6:55 PM 61.2 °F 50.4 °F 68% 30.17 in 10.0 mi NE 6.9 mph - N/A   Overcast
7:15 PM 61.0 °F 50.7 °F 69% 30.17 in 10.0 mi NNE 6.9 mph - N/A   Overcast
7:35 PM 60.8 °F 51.3 °F 71% 30.17 in 10.0 mi ENE 6.9 mph - N/A   Overcast
7:55 PM 60.4 °F 51.6 °F 73% 30.17 in 10.0 mi NE 6.9 mph - N/A   Overcast
8:15 PM 59.9 °F 52.3 °F 76% 30.17 in 10.0 mi ENE 6.9 mph - N/A   Overcast
8:35 PM 60.1 °F 52.9 °F 77% 30.18 in 10.0 mi ENE 6.9 mph - N/A   Overcast
8:55 PM 59.9 °F 53.2 °F 79% 30.18 in 10.0 mi NE 5.8 mph - N/A   Overcast
9:15 PM 59.5 °F 53.6 °F 81% 30.18 in 10.0 mi NE 5.8 mph - N/A   Overcast
9:35 PM 59.4 °F 53.8 °F 82% 30.19 in 7.0 mi ENE 4.6 mph - N/A   Overcast
9:55 PM 59.2 °F 54.5 °F 84% 30.18 in 4.0 mi NE 5.8 mph - N/A   Overcast
10:15 PM 59.0 °F 54.9 °F 86% 30.18 in 2.5 mi ENE 4.6 mph - N/A   Overcast
10:35 PM 59.0 °F 55.2 °F 87% 30.19 in 2.0 mi Calm Calm - N/A Rain Rain
10:55 PM 59.0 °F 55.4 °F 88% 30.20 in 1.8 mi NE 3.5 mph - N/A Rain Rain
11:15 PM 59.0 °F 55.6 °F 88% 30.20 in 1.5 mi East 3.5 mph - N/A Rain Rain
11:35 PM 59.2 °F 55.8 °F 88% 30.19 in 1.2 mi East 4.6 mph - N/A Rain Light Rain
11:55 PM 59.0 °F 55.8 °F 89% 30.18 in 1.5 mi East 3.5 mph - N/A Rain Rain